London, United Kingdom

11:53 PM GMT on February 12, 2016 (GMT +0000)
London

Weather History for 03772 - November, 2012

Change the Weather History Date:

Friday, November 2, 2012

  Actual Average Record
Temperature  
Mean Temperature 46 °F -  
Max Temperature 52 °F 50 °F - ()
Min Temperature 39 °F 39 °F - ()
Degree Days  
Heating Degree Days 20    
Moisture  
Dew Point 37 °F    
Average Humidity 76    
Maximum Humidity 87    
Minimum Humidity 50    
Precipitation  
Precipitation 0.00 in - - ()
Sea Level Pressure  
Sea Level Pressure 29.28 in    
Wind  
Wind Speed 12 mph ()    
Max Wind Speed 20 mph    
Max Gust Speed 30 mph    
Visibility 7.8 miles    
Events Rain    
T = Trace of Precipitation, MM = Missing Value Source: Averaged Metar Reports

Daily Weather History Graph

Daily Weather History Graph

Search for Another Location

Airport or City:

Trip Planner

Search our weather history database for the weather conditions in past years. The results will help you decide how hot, cold, wet, or windy it might be!

Date:

Astronomy

Nov. 02, 2012 Rise Set
Actual Time 6:57 AM GMT 4:32 PM GMT
Civil Twilight 6:22 AM GMT 5:07 PM GMT
Nautical Twilight 5:42 AM GMT 5:47 PM GMT
Astronomical Twilight 5:03 AM GMT 6:25 PM GMT
Moon 6:51 PM GMT (11/2) 10:22 AM GMT (11/2)
Length of Visible Light 10h 45m
Length of Day
9h 34m
Waning Gibbous, 88% of the Moon is Illuminated
Nov 2
Waning Gibbous
Nov 7
Last Quarter
Nov 13
New
Nov 20
First Quarter
Nov 28
Full

Hourly Weather History & Observations

Time (GMT) Temp. Windchill Dew Point Humidity Pressure Visibility Wind Dir Wind Speed Gust Speed Precip Events Conditions
12:20 AM 42.8 °F 35.8 °F 35.6 °F 76% 29.15 in - WSW 13.8 mph - N/A   Clear
12:50 AM 42.8 °F 35.8 °F 35.6 °F 76% 29.15 in - WSW 13.8 mph - N/A   Clear
1:20 AM 42.8 °F 35.1 °F 37.4 °F 81% 29.15 in 6.2 mi WSW 16.1 mph - N/A   Unknown
1:50 AM 42.8 °F 36.6 °F 37.4 °F 81% 29.18 in 6.2 mi WSW 11.5 mph - N/A   Unknown
2:20 AM 44.6 °F 37.8 °F 37.4 °F 76% 29.18 in 6.2 mi WSW 15.0 mph - N/A   Unknown
2:50 AM 43 °F - 38 °F 76% 29.20 in 28 mi West 11.5 mph - -   Partly Cloudy
2:50 AM 44.6 °F 38.4 °F 37.4 °F 76% 29.18 in - West 12.7 mph - N/A   Clear
3:20 AM 44.6 °F 37.4 °F 37.4 °F 76% 29.21 in - WSW 16.1 mph - N/A   Clear
3:50 AM 44.6 °F 37.8 °F 37.4 °F 76% 29.21 in - WSW 15.0 mph - N/A   Clear
4:20 AM 42.8 °F 35.4 °F 37.4 °F 81% 29.21 in - WSW 15.0 mph - N/A   Clear
4:50 AM 41.0 °F 33.9 °F 37.4 °F 87% 29.21 in - SW 12.7 mph - N/A   Clear
5:20 AM 41.0 °F 34.3 °F 37.4 °F 87% 29.21 in - SW 11.5 mph - N/A   Clear
5:50 AM 40 °F - 37 °F 84% 29.23 in 22 mi SW 10.4 mph - -  
5:50 AM 41.0 °F 34.7 °F 35.6 °F 81% 29.24 in - SW 10.4 mph - N/A   Clear
6:20 AM 41.0 °F 34.7 °F 35.6 °F 81% 29.24 in - SW 10.4 mph - N/A   Clear
6:50 AM 39.2 °F 34.2 °F 35.6 °F 87% 29.24 in - SW 6.9 mph - N/A   Clear
7:20 AM 39.2 °F 33.6 °F 35.6 °F 87% 29.24 in - WSW 8.1 mph - N/A   Clear
7:50 AM 39.2 °F 33.0 °F 35.6 °F 87% 29.24 in - SW 9.2 mph - N/A   Clear
8:20 AM 41.0 °F 34.7 °F 35.6 °F 81% 29.24 in - SW 10.4 mph - N/A   Clear
8:50 AM 43 °F - 37 °F 74% 29.25 in 18 mi SW 10.4 mph - -   Scattered Clouds
8:50 AM 42.8 °F 36.6 °F 37.4 °F 81% 29.24 in - SW 11.5 mph 24.2 mph N/A   Clear
9:20 AM 44.6 °F 38.8 °F 39.2 °F 81% 29.24 in - SW 11.5 mph - N/A   Clear
9:50 AM 46.4 °F 40.1 °F 39.2 °F 76% 29.24 in - SW 15.0 mph - N/A   Clear
10:20 AM 48.2 °F - 39.2 °F 71% 29.27 in 6.2 mi SW 12.7 mph - N/A   Partly Cloudy
10:50 AM 48.2 °F - 39.2 °F 71% 29.27 in 6.2 mi SW 12.7 mph - N/A   Partly Cloudy
11:20 AM 50.0 °F - 37.4 °F 62% 29.24 in 6.2 mi WSW 17.3 mph - N/A   Partly Cloudy
11:50 AM 50 °F - 37 °F 50% 29.25 in 22 mi WSW 16.1 mph - -   Scattered Clouds
11:50 AM 50.0 °F - 37.4 °F 62% 29.24 in 6.2 mi WSW 17.3 mph - N/A   Scattered Clouds
12:20 PM 50.0 °F - 37.4 °F 62% 29.24 in 6.2 mi WSW 18.4 mph 29.9 mph N/A   Scattered Clouds
12:50 PM 50.0 °F - 35.6 °F 58% 29.24 in 6.2 mi WSW 17.3 mph - N/A   Scattered Clouds
1:20 PM 48.2 °F - 35.6 °F 62% 29.24 in 6.2 mi WSW 18.4 mph - N/A   Scattered Clouds
1:50 PM 51.8 °F - 35.6 °F 54% 29.24 in 6.2 mi WSW 19.6 mph - N/A   Scattered Clouds
2:20 PM 46.4 °F 40.1 °F 37.4 °F 71% 29.27 in 6.2 mi West 15.0 mph - N/A   Scattered Clouds
2:50 PM 47 °F - 37 °F 59% 29.28 in 25 mi West 17.3 mph - - Rain Rain
2:50 PM 46.4 °F 39.8 °F 39.2 °F 76% 29.27 in 6.2 mi West 16.1 mph - N/A   Partly Cloudy
3:20 PM 48.2 °F - 37.4 °F 66% 29.27 in 6.2 mi West 13.8 mph - N/A   Partly Cloudy
3:50 PM 48.2 °F - 35.6 °F 62% 29.30 in 6.2 mi WSW 13.8 mph - N/A   Partly Cloudy
4:20 PM 46.4 °F 40.4 °F 35.6 °F 66% 29.30 in - WSW 13.8 mph - N/A   Clear
4:50 PM 46.4 °F 40.4 °F 35.6 °F 66% 29.33 in - WSW 13.8 mph - N/A   Clear
5:20 PM 44.6 °F 39.2 °F 37.4 °F 76% 29.33 in - WSW 10.4 mph - N/A   Clear
5:50 PM 45 °F - 37 °F 66% 29.34 in 22 mi SW 10.4 mph - -   Partly Cloudy
5:50 PM 44.6 °F 39.2 °F 37.4 °F 76% 29.33 in - WSW 10.4 mph - N/A   Clear
6:20 PM 42.8 °F 38.0 °F 37.4 °F 81% 29.36 in - SW 8.1 mph - N/A   Clear
6:50 PM 42.8 °F 38.6 °F 37.4 °F 81% 29.36 in - SSW 6.9 mph - N/A   Clear
7:20 PM 42.8 °F 37.5 °F 37.4 °F 81% 29.36 in - SSW 9.2 mph - N/A   Clear
7:50 PM 41.0 °F 36.4 °F 37.4 °F 87% 29.36 in - SSW 6.9 mph - N/A   Clear
8:20 PM 41.0 °F 36.4 °F 37.4 °F 87% 29.39 in - SSW 6.9 mph - N/A   Clear
8:50 PM 42 °F - 37 °F 75% 29.40 in 15 mi SSW 8.1 mph - -  
8:50 PM 41.0 °F 35.8 °F 37.4 °F 87% 29.39 in - SW 8.1 mph - N/A   Clear
9:20 PM 41.0 °F 37.1 °F 35.6 °F 81% 29.39 in - SW 5.8 mph - N/A   Clear
9:50 PM 41.0 °F 37.1 °F 35.6 °F 81% 29.39 in - SW 5.8 mph - N/A   Clear
10:20 PM 39.2 °F 34.2 °F 35.6 °F 87% 29.42 in - SW 6.9 mph - N/A   Clear
10:50 PM 39.2 °F 34.2 °F 35.6 °F 87% 29.42 in - SW 6.9 mph - N/A   Clear
11:20 PM 39.2 °F 34.2 °F 35.6 °F 87% 29.42 in - SSW 6.9 mph - N/A   Clear
11:50 PM 40 °F - 36 °F 82% 29.41 in 14 mi South 9.2 mph - -  
11:50 PM 39.2 °F 33.6 °F 35.6 °F 87% 29.39 in - SSW 8.1 mph - N/A   Clear